Fort Worth, TX

12:43 AM CDT on May 30, 2017 (GMT -0500)
Fort Worth Meacham International

Weather History for KFTW - January, 2006

Change the Weather History Date:

Sunday, January 1, 2006

  Actual Average Record
Temperature  
Mean Temperature 68 °F -  
Max Temperature 82 °F 55 °F 82 °F (2006)
Min Temperature 55 °F 35 °F 24 °F (2001)
Cooling Degree Days 4    
Growing Degree Days 18 (Base 50)    
Moisture  
Dew Point 33 °F    
Average Humidity 37    
Maximum Humidity 83    
Minimum Humidity 8    
Precipitation  
Precipitation 0.00 in - - ()
Sea Level Pressure  
Sea Level Pressure 29.59 in    
Wind  
Wind Speed 14 mph (SW)    
Max Wind Speed 20 mph    
Max Gust Speed 29 mph    
Visibility 9 miles    
Events      
Averages and records for this station are not official NWS values.
T = Trace of Precipitation, MM = Missing Value Source: NWS Daily Summary

Daily Weather History Graph

Daily Weather History Graph

Search for Another Location

Airport or City:

Trip Planner

Search our weather history database for the weather conditions in past years. The results will help you decide how hot, cold, wet, or windy it might be!

Date:

Astronomy

Jan. 01, 2006 Rise Set
Actual Time 7:32 AM CST 5:34 PM CST
Civil Twilight 7:04 AM CST 6:01 PM CST
Nautical Twilight 6:34 AM CST 6:32 PM CST
Astronomical Twilight 6:04 AM CST 7:02 PM CST
Moon 9:14 AM CST (1/1) 7:27 PM CST (1/1)
Length of Visible Light 10h 56m
Length of Day
10h 02m
Waxing Crescent, 4% of the Moon is Illuminated
Jan 1
Waxing Crescent
Jan 6
First Quarter
Jan 14
Full
Jan 22
Last Quarter
Jan 29
New

Hourly Weather History & Observations

Time (CST) Temp. Dew Point Humidity Pressure Visibility Wind Dir Wind Speed Gust Speed Precip Events Conditions
12:53 AM 60.1 °F 44.1 °F 55% 29.64 in 10.0 mi SSW 13.8 mph - N/A   Clear
1:53 AM 57.9 °F 45.0 °F 62% 29.65 in 10.0 mi South 12.7 mph - N/A   Clear
2:53 AM 57.9 °F 46.0 °F 65% 29.64 in 10.0 mi SSW 11.5 mph - N/A   Clear
3:53 AM 55.9 °F 45.0 °F 67% 29.63 in 10.0 mi South 11.5 mph - N/A   Clear
4:53 AM 57.0 °F 48.0 °F 72% 29.62 in 10.0 mi South 15.0 mph - N/A   Clear
5:53 AM 57.2 °F 51.8 °F 82% 29.63 in 10.0 mi SSW 17.3 mph 23.0 mph N/A   Clear
6:53 AM 59.0 °F 54.0 °F 83% 29.63 in 9.0 mi SSW 15.0 mph 21.9 mph N/A   Clear
7:53 AM 59.0 °F 54.0 °F 83% 29.61 in 6.0 mi South 15.0 mph - N/A   Haze
8:53 AM 62.1 °F 55.0 °F 78% 29.61 in 8.0 mi SSW 17.3 mph 25.3 mph N/A   Clear
9:53 AM 66.9 °F 53.1 °F 61% 29.61 in 10.0 mi SSW 17.3 mph 27.6 mph N/A   Clear
10:53 AM 71.1 °F 50.0 °F 47% 29.60 in 10.0 mi SSW 16.1 mph 28.8 mph N/A   Clear
11:53 AM 75.9 °F 46.0 °F 35% 29.56 in 10.0 mi SSW 18.4 mph 26.5 mph N/A   Clear
12:53 PM 77.0 °F 41.0 °F 28% 29.52 in 10.0 mi SW 16.1 mph 24.2 mph N/A   Clear
1:53 PM 78.1 °F 33.1 °F 19% 29.49 in 10.0 mi SW 19.6 mph 27.6 mph N/A   Clear
2:53 PM 80.1 °F 28.9 °F 15% 29.48 in 10.0 mi SW 17.3 mph 23.0 mph N/A   Clear
3:53 PM 82.9 °F 19.0 °F 9% 29.48 in 10.0 mi SSW 15.0 mph - N/A   Clear
4:53 PM 81.0 °F 19.0 °F 10% 29.48 in 10.0 mi SW 12.7 mph 20.7 mph N/A   Clear
5:53 PM 78.8 °F 14.0 °F 9% 29.52 in 9.0 mi WSW 13.8 mph - N/A   Clear
6:53 PM 75.9 °F 15.1 °F 10% 29.52 in 10.0 mi SW 10.4 mph - N/A   Clear
7:53 PM 75.9 °F 10.0 °F 8% 29.58 in 9.0 mi WNW 12.7 mph 25.3 mph N/A   Clear
8:24 PM 75.2 °F 10.4 °F 8% 29.62 in 6.0 mi WNW 13.8 mph - N/A   Smoke
8:53 PM 73.0 °F 12.9 °F 10% 29.61 in 6.0 mi West 8.1 mph - N/A   Smoke
9:00 PM 73.4 °F 14.0 °F 10% 29.63 in 6.0 mi West 8.1 mph - N/A   Smoke
9:53 PM 70.0 °F 12.9 °F 11% 29.63 in 6.0 mi WSW 8.1 mph - N/A   Haze
10:53 PM 68.0 °F 12.9 °F 12% 29.65 in 6.0 mi WSW 9.2 mph - N/A   Haze
11:53 PM 62.1 °F 16.0 °F 17% 29.69 in 7.0 mi NW 8.1 mph - N/A   Smoke